Flag for Mauritania Weather past 2 weeks in Rosso, Mauritania

Now
79 °F

Partly sunny.


Feels Like: 82 °F
Forecast: 77 / 101 °F
Wind: 9 mph from Southwest

Location: Saint Airport-Louis

Current Time: Jul 5, 2015 at 7:54:24 AM

Latest Report: Jul 5, 2015 at 7:00 AM


Visibility: N/A

Pressure: 29.80 "Hg

Humidity: 84%

Dew point: 73 °F

Location of RossoLocation

Historic Weather in Rosso — Graph

°F

Rosso temperature yesterday

Maximum temperature yesterday: 86 °F (at 2:00 PM)
Minimum temperature yesterday: 77 °F (at 6:00 AM)
Average temperature yesterday: 81 °F

Past Weeks' High & Low Weather Summary

 TemperatureHumidityPressure
High100 °F (Jun 30, 3:00 PM)94% (Jun 22, 4:00 AM)30.07 "Hg (Jun 22, 4:00 AM)
Low75 °F (Jun 23, 4:00 AM)45% (Jun 30, 3:00 PM)29.80 "Hg (Jul 4, 6:00 AM)
Average81 °F79%29.93 "Hg
* Reported Jun 20 6:00 AM — Jul 5 6:00 AM, Rosso, Weather by CustomWeather, © 2015

Note: Actual official high and low records may vary slightly from our data, if they occured in-between our weather recording intervals... More about our weather records

Advertising

Rosso weather history for previous 24 hours

 ConditionsComfort  
Time TempWeatherWind HumidityBarometerVisibility
6:00 AM
Sun, Jul 5
79 °FPassing clouds.12 mph89%29.80 "HgN/A
3:00 AM79 °FPassing clouds.16 mph89%29.80 "HgN/A
12:00 AM79 °FPassing clouds.7 mph89%29.86 "HgN/A
11:00 PM
Sat, Jul 4
79 °FPassing clouds.5 mph89%29.86 "HgN/A
10:00 PM79 °FPassing clouds.5 mph89%29.83 "HgN/A
9:00 PM81 °FClear.12 mph84%29.80 "Hg10 mi
6:00 PM84 °FPassing clouds.7 mph74%29.80 "HgN/A
5:00 PM84 °FScattered clouds.7 mph70%29.80 "HgN/A
4:00 PM84 °FScattered clouds.7 mph70%29.83 "HgN/A
3:00 PM86 °FScattered clouds.7 mph75%29.83 "HgN/A
2:00 PM86 °FScattered clouds.7 mph66%29.83 "HgN/A
1:00 PM84 °FScattered clouds.5 mph70%29.83 "HgN/A
12:00 PM84 °FScattered clouds.12 mph70%29.86 "HgN/A
11:00 AM82 °FScattered clouds.5 mph74%29.86 "HgN/A
10:00 AM81 °FScattered clouds.7 mph79%29.86 "HgN/A
9:00 AM79 °FScattered clouds.7 mph84%29.86 "HgN/A
8:00 AM77 °FScattered clouds.5 mph89%29.80 "HgN/A
7:00 AM77 °FScattered clouds.7 mph89%29.80 "HgN/A
Weather by CustomWeather, © 2015

See weather overviewHow to use our weather pages